Regional Weather Roundup
Issued by NWS

Home | Current Version | Previous Version | Graphics & Text | Print | Product List | Glossary On
Versions: 1 2 3 4 5 6 7 8 9 10 11 12 13 14 15 16 17 18 19 20 21 22 23 24 25 26 27 28 29 30 31 32 33 34 35 36 37 38 39 40 41 42 43 44 45 46 47 48 49 50
603
ASUS43 KMPX 281610
RWRMN
WEATHER ROUNDUP FOR MINNESOTA
NATIONAL WEATHER SERVICE TWIN CITIES/CHANHASSEN MN
1100 AM CDT SUN MAY 28 2017


NOTE: "FAIR" INDICATES FEW OR NO CLOUDS BELOW 12,000 FEET WITH NO
SIGNIFICANT WEATHER AND/OR OBSTRUCTIONS TO VISIBILITY. N/A MEANS
CURRENT SKY AND/OR WEATHER CONDITIONS ARE NOT AVAILABLE.

MNZ060>063-068>070-281700-
   Twin Cities Metro

CITY           SKY/WX    TMP DP  RH WIND       PRES   REMARKS
TWIN CITIES    MOSUNNY   65  46  50 NW14      29.75S
ST PAUL        MOSUNNY   65  47  52 W17G25    29.75R
CRYSTAL        MOSUNNY   64  44  48 W14       29.74R
BLAINE         PTSUNNY   63  46  55 W15G24    29.74S
LAKEVILLE      SUNNY     64  46  52 W13G22    29.76R
EDEN PRAIRIE   SUNNY     66  47  50 W17       29.74F
SOUTH ST PAUL  MOSUNNY   64  45  49 W13G25    29.74S
LAKE ELMO      PTSUNNY   63  48  59 W15G21    29.74S
$$
MNZ001>005-007-008-013>017-022>024-027-028-281700-
   Northwest Minnesota

CITY           SKY/WX    TMP DP  RH WIND       PRES   REMARKS
BEMIDJI        CLOUDY    58  49  70 W14       29.70F
HALLOCK        CLOUDY    57  50  77 NW18G26   29.72F
ROSEAU         PTSUNNY   57  52  82 W14G21    29.69S
WARROAD        CLOUDY    59  50  72 NW13G21   29.68F
THIEF RVR FALL LGT RAIN  52  50  93 W12       29.75S
CROOKSTON      CLOUDY    54  54 100 N17       29.76F
FOSSTON        RAIN      54  48  82 W14       29.75S
DETROIT LAKES  PTSUNNY   59  50  72 NW15G22   29.77S
MOORHEAD       MOSUNNY   63  46  55 NW17      29.77F
PARK RAPIDS    LGT RAIN  63  46  54 NW15G23   29.71F
MAHNOMEN       CLOUDY    56  50  82 NW14      29.75S
$$
MNZ006-009>011-018-025>026-281700-
   North Central Minnesota

CITY           SKY/WX    TMP DP  RH WIND       PRES   REMARKS
BAUDETTE       CLOUDY    60  48  64 NW16      29.66S
FLAG ISLAND    CLOUDY    54  48  82 W17       29.65S
INTL FALLS     LGT RAIN  54  49  83 SW3       29.65R
WASKISH        CLOUDY    59  52  77 W12G21    29.67S
BIG FORK       CLOUDY    55  48  76 W6        29.67F
LONGVILLE      CLOUDY    55  50  82 W5        29.71S
GRAND RAPIDS   LGT RAIN  53  48  83 W7        29.71S
CRANE LAKE     CLOUDY    57  52  82 CALM      29.65F
ORR            CLOUDY    59  46  63 NW8       29.62S
COOK           PTSUNNY   61  50  67 SW6       29.64F
WALKER         CLOUDY    59  49  68 NW16G22   29.70F
$$
MNZ012-019>021-037-281700-
   Northeast Minnesota

CITY           SKY/WX    TMP DP  RH WIND       PRES   REMARKS
DULUTH         CLOUDY    60  53  77 W6        29.65F
ELY            CLOUDY    55  50  82 SW6       29.65S
HIBBING        MOSUNNY   61  50  67 W8        29.65S
EVELETH        CLOUDY    62  48  60 NW5       29.66S
DULUTH HARBOR  CLOUDY    57  54  88 CALM      29.66S
TWO HARBORS    DRIZZLE   57  54  88 SW6       29.64S
SILVER BAY     CLOUDY    54  52  94 S6        29.65R
GRAND MARAIS     N/A     49  42  77 E6        29.65F
G MARAIS ARPRT PTSUNNY   61  45  55 SW6       29.67S
$$
MNZ029>031-032-039>041-046>048-054>057-064-281700-
   West Central Minnesota

CITY           SKY/WX    TMP DP  RH WIND       PRES   REMARKS
FERGUS FALLS   SUNNY     63  50  63 NW18G26   29.76F
WHEATON        MOSUNNY   64  45  48 NW18      29.82R
MORRIS         SUNNY     66  46  48 NW18      29.79S
ALEXANDRIA     CLOUDY    65  47  52 W13G23    29.77F
ELBOW LAKE     FAIR      61  49  65 NW12      29.79S
WADENA         MOSUNNY   63  48  59 NW20G25   29.74S
GLENWOOD       SUNNY     64  46  52 W16G24    29.77F
APPLETON       MOSUNNY   68  43  40 NW16      29.79F
BENSON         PTSUNNY   66  46  48 N16       29.80F
ORTONVILLE     PTSUNNY   64  45  48 NW13G18   29.81S
MADISON        MOSUNNY   70  45  40 NW17G28   29.81S
WILLMAR        FAIR      66  48  52 NW15G24   29.80S
$$
MNZ033>034-036-042>043-049>051-058-059-281700-
   Central Minnesota

CITY           SKY/WX    TMP DP  RH WIND       PRES   REMARKS
ST CLOUD       MOSUNNY   64  50  60 W17       29.74F
SAUK CENTRE    FAIR      64  47  54 W16       29.75F
PAYNESVILLE    SUNNY     64  46  52 W15       29.78S
AITKIN         CLOUDY    57  48  72 W5        29.69F
PINE RIVER     CLOUDY    59  48  67 NW8       29.75S
BRAINERD       CLOUDY    59  48  67 NW15G22   29.72F
STAPLES        PTSUNNY   61  46  59 NW12G20   29.73S
LONG PRAIRIE   FAIR      63  46  55 W12       29.75F
LITTLE FALLS   MOSUNNY   63  45  51 NW13G18   29.74S
LITCHFIELD     SUNNY     66  48  52 NW15G22   29.78S
BUFFALO        SUNNY     64  47  53 W14G20    29.77S
MAPLE LAKE     SUNNY     65  50  58 W12G17    29.76F
HUTCHINSON     CLOUDY    68  48  49 W16G26    29.79S
$$
MNZ037-044-045-052-053-281700-
   East Central Minnesota

CITY           SKY/WX    TMP DP  RH WIND       PRES   REMARKS
PRINCETON      MOSUNNY   66  50  55 W12G22    29.74S
MORA           PTSUNNY   59  45  58 NW12      29.73S
CAMBRIDGE      MOSUNNY   63  48  59 W12G22    29.71F
RUSH CITY      PTSUNNY   62  49  61 W9        29.71F
MOOSE LAKE     CLOUDY    55  46  71 W10       29.68S
HINCKLEY       PTSUNNY   61  50  67 W15       29.71S
CLOQUET        PTSUNNY   57  50  77 SW7       29.66S
MCGREGOR       CLOUDY    57  46  67 W9        29.70S
$$
MNZ071>073-080-081-089-090-097-098-281700-
   Southwest Minnesota

CITY           SKY/WX    TMP DP  RH WIND       PRES   REMARKS
MONTEVIDEO     MOSUNNY   68  45  42 N12G18    29.81S
CANBY          CLOUDY    68  45  44 NW22      29.84S
MARSHALL       MOSUNNY   67  43  41 NW18      29.83S
REDWOOD FALLS  PTSUNNY   67  42  40 NW16G23   29.81S
OLIVIA         SUNNY     70  46  43 NW14G21   29.79S
PIPESTONE      SUNNY     66  39  37 N13G22    29.87S
WINDOM         SUNNY     66  43  42 NW15G21   29.84S
WORTHINGTON    SUNNY     67  44  43 NW12G20   29.86S
JACKSON        SUNNY     66  41  39 W15       29.84F
TRACY          MOSUNNY   67  45  44 W7        29.84S
SLAYTON        SUNNY     65  43  44 NW15      29.86S
$$
MNZ065>067-074>077-082>085-091>093-281700-
   South Central Minnesota

CITY           SKY/WX    TMP DP  RH WIND       PRES   REMARKS
MANKATO        SUNNY     66  45  46 NW16      29.80S
NEW ULM        SUNNY     66  45  45 W14       29.80S
ST JAMES       SUNNY     68  45  42 W15       29.83S
FAIRMONT       SUNNY     67  44  43 NW14      29.83S
GLENCOE        SUNNY     67  50  53 NW13G21   29.77S
FARIBAULT      SUNNY     66  46  48 W16G28    29.78S
OWATONNA       SUNNY     66  45  45 NW21G28   29.79S
WASECA         SUNNY     64  45  48 NW20G28   29.81S
ALBERT LEA     SUNNY     68  46  45 W9        29.80F
$$
MNZ078>079-086>088-094>096-281700-
   Southeast Minnesota

CITY           SKY/WX    TMP DP  RH WIND       PRES   REMARKS
ROCHESTER      SUNNY     66  45  46 NW22G30   29.78F
RED WING       SUNNY     68  41  37 W18G24    29.72F
STANTON        SUNNY     66  46  48 NW22G28   29.75S
DODGE CENTER   SUNNY     64  45  48 W15G26    29.78F
WINONA         SUNNY     70  50  49 NW12G18   29.74S
AUSTIN         SUNNY     64  45  48 W17G25    29.80S
PRESTON        SUNNY     66  45  46 W18       29.78F
$$
ABBREVIATIONS USED IN REMARKS
   TC - TEMPERATURES IN CELSIUS
  WCI - WIND CHILL INDEX
   HX - HEAT INDEX
  VSB - VISIBILITY
$$




USA.gov is the U.S. government's official web portal to all federal, state and local government web resources and services.